Tracking 19281 objects as of 16-Nov-2018
HD Live streaming from Space Station
objects crossing your sky now

BEIDOU 3M11

Track BEIDOU 3M11 now!
BEIDOU 3M11 is classified as:


NORAD ID: 43602
Int'l Code: 2018-067A
Perigee: 21,518.8 km
Apogee: 21,551.5 km
Inclination: 55.0 °
Period: 773.2 minutes
Semi major axis: 27906 km
RCS: Unknown
Launch date: August 24, 2018
Source: People's Republic of China (PRC)
Launch site: Xichang Space Center, China (XSC)
aabbcc
Your satellite tracking list
Your tracking list is empty




NASA's NSSDC Master Catalog

Two Line Element Set (TLE):
1 43602U 18067A   18319.53348039 -.00000029 +00000-0 +00000-0 0  9996
2 43602 054.9790 275.5681 0005848 327.2688 228.1154 01.86231435001520
Source of the keplerian elements: AFSPC